Location: Malters
(47.0379°N, 8.1801°E)
Time: 11:11:57
(UTC+02:00)

ISS - Visible Passes

Search period start: 16 July 2018 00:00
Search period end: 26 July 2018 00:00
Orbit: 402 x 408 km, 51.6° (Epoch: 16 July)

Date Brightness Start Highest point End Pass type
(mag) Time Alt. Az. Time Alt. Az. Time Alt. Az.
16 Jul -1.6 00:59:18 17° ENE 00:59:18 17° ENE 01:00:14 10° ENE visible
16 Jul -2.6 02:31:55 23° WNW 02:33:36 42° NNW 02:36:46 10° ENE visible
16 Jul -2.3 04:07:25 10° WNW 04:10:32 38° N 04:13:39 10° E visible
17 Jul -3.1 01:41:12 52° NW 01:41:26 53° NNW 01:44:41 10° ENE visible
17 Jul -2.1 03:15:16 10° WNW 03:18:20 35° N 03:21:24 10° ENE visible
17 Jul -3.4 04:51:52 10° WNW 04:55:10 69° NNE 04:58:27 10° ESE visible
18 Jul -3.0 00:50:13 44° NE 00:50:13 44° NE 00:52:36 10° ENE visible
18 Jul -2.2 02:23:02 10° WNW 02:26:06 35° N 02:29:11 10° ENE visible
18 Jul -2.8 03:59:47 10° WNW 04:03:01 50° NNE 04:06:15 10° E visible
18 Jul -3.1 23:58:12 41° E 23:58:12 41° E 00:00:30 10° ENE visible
19 Jul -2.4 01:30:45 10° W 01:33:52 39° N 01:37:01 10° ENE visible
19 Jul -2.4 03:07:40 10° WNW 03:10:49 40° N 03:13:58 10° E visible
19 Jul -3.9 04:44:11 10° WNW 04:47:28 66° SSW 04:50:44 10° SE visible
19 Jul -3.5 23:02:05 10° SW 23:05:11 42° SE 23:08:19 10° ENE visible
20 Jul -2.9 00:38:28 10° W 00:41:40 48° NNW 00:44:53 10° ENE visible
20 Jul -2.2 02:15:31 10° WNW 02:18:35 36° N 02:21:40 10° ENE visible
20 Jul -3.8 03:52:04 10° WNW 03:55:22 80° NNE 03:58:40 10° ESE visible
20 Jul -2.8 22:10:27 10° SSW 22:13:12 25° SE 22:15:58 10° E visible
20 Jul -3.5 23:46:14 10° WSW 23:49:29 66° NNW 23:52:46 10° ENE visible
21 Jul -2.1 01:23:15 10° WNW 01:26:19 35° N 01:29:23 10° ENE visible
21 Jul -3.1 02:59:58 10° WNW 03:03:12 55° NNE 03:06:27 10° E visible
21 Jul -3.1 04:36:36 10° WNW 04:39:36 32° SW 04:42:35 10° SSE visible
21 Jul -4.0 22:54:04 10° WSW 22:57:21 83° SSE 23:00:38 10° ENE visible
22 Jul -2.3 00:30:57 10° WNW 00:34:03 37° N 00:37:09 10° ENE visible
22 Jul -2.6 02:07:49 10° WNW 02:10:59 43° NNE 02:14:09 10° E visible
22 Jul -3.8 03:44:20 10° WNW 03:47:34 54° SSW 03:50:47 10° SE visible
22 Jul -3.7 22:02:03 10° SW 22:05:14 51° SSE 22:08:27 10° ENE visible
22 Jul -2.6 23:38:37 10° W 23:41:48 44° NNW 23:44:58 10° ENE visible
23 Jul -2.3 01:15:37 10° WNW 01:18:43 37° N 01:20:48 17° ENE visible
23 Jul -1.8 02:52:09 10° WNW 02:53:17 20° WNW 02:53:17 20° WNW visible
23 Jul -3.2 22:46:19 10° W 22:49:33 58° NNW 22:52:48 10° ENE visible
24 Jul -2.2 00:23:22 10° WNW 00:26:25 35° N 00:29:05 13° ENE visible
24 Jul -2.0 02:00:00 10° WNW 02:01:40 27° NW 02:01:40 27° NW visible
24 Jul -3.8 21:54:04 10° WSW 21:57:21 84° NNW 22:00:39 10° ENE visible
24 Jul -2.2 23:31:02 10° WNW 23:34:07 36° N 23:37:12 10° ENE visible
25 Jul -2.7 01:07:50 10° WNW 01:10:41 44° N 01:10:41 44° N visible
25 Jul -2.5 22:38:40 10° W 22:41:48 41° N 22:44:57 10° ENE visible
